• In Belarus
  • List of Countries
  • For 7 days
  • Water Temperature
  • Satellite Maps
  • Weather Map
  • Weather Widgets
  • user-avatar
    Login

    Hourly Weather Kochevatovo

    Today, 19 April, Thursday

    Time Temperature Precipitation Wind Pressure Humidity
    00:00 +7°C° 0.1 mm 2 mps 745 mmHg 95%
    01:00 +7°C° 0.1 mm 2 mps 745 mmHg 95%
    02:00 +7°C° 0.1 mm 3 mps 745 mmHg 95%
    03:00 +7°C° 0 mm 3 mps 745 mmHg 93%
    04:00 +5°C° 0.1 mm 3 mps 745 mmHg 93%
    05:00 +5°C° 0.1 mm 3 mps 745 mmHg 92%
    06:00 +5°C° 0.1 mm 4 mps 745 mmHg 91%
    07:00 +6°C° 0 mm 4 mps 745 mmHg 86%
    08:00 +7°C° 0 mm 4 mps 745 mmHg 80%
    09:00 +8°C° 0 mm 5 mps 745 mmHg 74%
    10:00 +9°C° 0 mm 5 mps 745 mmHg 70%
    11:00 +10°C° 0 mm 5 mps 745 mmHg 66%
    12:00 +13°C° 0 mm 6 mps 745 mmHg 63%
    13:00 +13°C° 0 mm 6 mps 745 mmHg 63%
    14:00 +13°C° 0 mm 6 mps 745 mmHg 63%
    15:00 +13°C° 0 mm 6 mps 745 mmHg 63%
    16:00 +11°C° 0 mm 6 mps 745 mmHg 62%
    17:00 +11°C° 0 mm 6 mps 745 mmHg 60%
    18:00 +12°C° 0 mm 5 mps 745 mmHg 59%
    19:00 +10°C° 0 mm 5 mps 746 mmHg 64%
    20:00 +8°C° 0 mm 5 mps 746 mmHg 68%
    21:00 +7°C° 0 mm 5 mps 747 mmHg 73%
    22:00 +7°C° 0 mm 4 mps 747 mmHg 75%
    23:00 +6°C° 0 mm 4 mps 748 mmHg 78%

    Tomorrow, 20 April, Friday

    Time Temperature Precipitation Wind Pressure Humidity
    00:00 +5°C° 0 mm 4 mps 748 mmHg 80%
    01:00 +5°C° 0 mm 4 mps 749 mmHg 83%
    02:00 +4°C° 0 mm 4 mps 749 mmHg 85%
    03:00 +4°C° 0 mm 3 mps 749 mmHg 87%
    04:00 +3°C° 0 mm 3 mps 749 mmHg 89%
    05:00 +3°C° 0 mm 3 mps 750 mmHg 91%
    06:00 +3°C° 0 mm 3 mps 750 mmHg 93%
    07:00 +3°C° 0 mm 3 mps 750 mmHg 86%
    08:00 +4°C° 0 mm 4 mps 751 mmHg 79%
    09:00 +5°C° 0 mm 4 mps 751 mmHg 72%
    10:00 +5°C° 0 mm 4 mps 751 mmHg 68%
    11:00 +6°C° 0 mm 4 mps 751 mmHg 64%
    12:00 +7°C° 0 mm 4 mps 751 mmHg 60%
    13:00 +7°C° 0 mm 4 mps 751 mmHg 59%
    14:00 +8°C° 0 mm 4 mps 751 mmHg 58%
    15:00 +8°C° 0 mm 4 mps 751 mmHg 57%
    16:00 +9°C° 0 mm 3 mps 751 mmHg 59%
    17:00 +9°C° 0 mm 3 mps 751 mmHg 61%
    18:00 +8°C° 0 mm 2 mps 750 mmHg 63%
    19:00 +7°C° 0 mm 2 mps 750 mmHg 68%
    20:00 +7°C° 0 mm 1 mps 750 mmHg 73%
    21:00 +6°C° 0 mm 1 mps 749 mmHg 79%
    22:00 +5°C° 0.1 mm 2 mps 749 mmHg 80%
    23:00 +6°C° 0.1 mm 2 mps 748 mmHg 82%

    Day after tomorrow, 21 April, Saturday

    Time Temperature Precipitation Wind Pressure Humidity
    00:00 +5°C° 0.1 mm 3 mps 747 mmHg 83%
    01:00 +5°C° 0.5 mm 4 mps 746 mmHg 85%
    02:00 +5°C° 0.5 mm 5 mps 745 mmHg 86%
    03:00 +5°C° 0.5 mm 5 mps 743 mmHg 87%
    04:00 +6°C° 0.8 mm 5 mps 742 mmHg 87%
    05:00 +5°C° 0.8 mm 6 mps 741 mmHg 87%
    06:00 +5°C° 0.8 mm 6 mps 739 mmHg 88%
    07:00 +7°C° 0.3 mm 6 mps 738 mmHg 87%
    08:00 +7°C° 0.3 mm 6 mps 737 mmHg 87%
    09:00 +8°C° 0.3 mm 5 mps 736 mmHg 86%
    10:00 +8°C° 0.5 mm 5 mps 735 mmHg 87%
    11:00 +8°C° 0.5 mm 5 mps 734 mmHg 87%
    12:00 +9°C° 0.5 mm 6 mps 733 mmHg 88%
    13:00 +9°C° 0.5 mm 5 mps 732 mmHg 88%
    14:00 +9°C° 0.5 mm 5 mps 731 mmHg 88%
    15:00 +9°C° 0.5 mm 5 mps 730 mmHg 89%
    16:00 +9°C° 0.4 mm 6 mps 730 mmHg 83%
    17:00 +9°C° 0.4 mm 7 mps 729 mmHg 78%
    18:00 +9°C° 0.4 mm 8 mps 729 mmHg 73%
    19:00 +8°C° 0.2 mm 7 mps 729 mmHg 76%
    20:00 +5°C° 0.2 mm 7 mps 730 mmHg 79%
    21:00 +4°C° 0.2 mm 7 mps 730 mmHg 82%
    22:00 +3°C° 0.5 mm 7 mps 730 mmHg 82%
    23:00 +1°C° 0.5 mm 8 mps 731 mmHg 82%

    22 April, Sunday

    Time Temperature Precipitation Wind Pressure Humidity
    00:00 +1°C° 0.5 mm 9 mps 731 mmHg 82%
    01:00 0°C° 0.2 mm 8 mps 732 mmHg 82%
    02:00 0°C° 0.2 mm 8 mps 733 mmHg 82%
    03:00 -1°C° 0.2 mm 8 mps 734 mmHg 82%
    04:00 -1°C° 0.1 mm 7 mps 735 mmHg 81%
    05:00 -2°C° 0.1 mm 7 mps 736 mmHg 80%
    06:00 -2°C° 0.1 mm 7 mps 737 mmHg 80%
    07:00 -2°C° 0 mm 7 mps 737 mmHg 78%
    08:00 -2°C° 0 mm 7 mps 738 mmHg 75%
    09:00 -2°C° 0 mm 7 mps 739 mmHg 73%
    10:00 -1°C° 0 mm 6 mps 739 mmHg 71%
    11:00 -1°C° 0 mm 6 mps 740 mmHg 69%
    12:00 +1°C° 0 mm 6 mps 740 mmHg 67%
    13:00 +1°C° 0 mm 6 mps 741 mmHg 66%
    14:00 +1°C° 0 mm 6 mps 741 mmHg 65%
    15:00 +1°C° 0 mm 5 mps 742 mmHg 65%
    16:00 +1°C° 0 mm 5 mps 742 mmHg 64%
    17:00 0°C° 0 mm 5 mps 743 mmHg 64%
    18:00 0°C° 0 mm 4 mps 743 mmHg 63%
    19:00 0°C° 0 mm 4 mps 744 mmHg 67%
    20:00 0°C° 0 mm 3 mps 744 mmHg 71%
    21:00 -1°C° 0 mm 2 mps 744 mmHg 74%
    22:00 -1°C° 0 mm 2 mps 745 mmHg 76%
    23:00 -1°C° 0 mm 2 mps 745 mmHg 79%

    23 April, Monday

    Time Temperature Precipitation Wind Pressure Humidity
    00:00 -2°C° 0 mm 2 mps 745 mmHg 81%
    01:00 -2°C° 0 mm 2 mps 745 mmHg 82%
    02:00 -3°C° 0 mm 2 mps 746 mmHg 83%
    03:00 -3°C° 0 mm 2 mps 746 mmHg 85%
    04:00 -3°C° 0 mm 2 mps 746 mmHg 83%
    05:00 -3°C° 0 mm 2 mps 747 mmHg 82%
    06:00 -4°C° 0 mm 3 mps 747 mmHg 80%
    07:00 -2°C° 0 mm 3 mps 747 mmHg 69%
    08:00 0°C° 0 mm 3 mps 748 mmHg 59%
    09:00 0°C° 0 mm 4 mps 748 mmHg 48%
    10:00 +1°C° 0 mm 4 mps 748 mmHg 46%
    11:00 +3°C° 0 mm 4 mps 748 mmHg 44%
    12:00 +3°C° 0 mm 3 mps 748 mmHg 41%
    13:00 +4°C° 0 mm 3 mps 748 mmHg 41%
    14:00 +4°C° 0 mm 3 mps 748 mmHg 42%
    15:00 +4°C° 0 mm 3 mps 748 mmHg 42%
    16:00 +4°C° 0 mm 3 mps 748 mmHg 44%
    17:00 +4°C° 0 mm 3 mps 748 mmHg 46%
    18:00 +4°C° 0 mm 2 mps 748 mmHg 48%
    19:00 +3°C° 0 mm 2 mps 748 mmHg 54%
    20:00 +2°C° 0 mm 1 mps 748 mmHg 60%
    21:00 +1°C° 0 mm 1 mps 748 mmHg 65%
    22:00 +1°C° 0 mm 1 mps 748 mmHg 67%
    23:00 0°C° 0 mm 1 mps 748 mmHg 68%

    24 April, Tuesday

    Time Temperature Precipitation Wind Pressure Humidity
    00:00 0°C° 0 mm 1 mps 748 mmHg 70%
    01:00 -1°C° 0 mm 1 mps 748 mmHg 70%
    02:00 -1°C° 0 mm 1 mps 748 mmHg 70%
    03:00 -1°C° 0 mm 1 mps 748 mmHg 70%
    04:00 -1°C° 0 mm 1 mps 748 mmHg 69%
    05:00 0°C° 0 mm 1 mps 748 mmHg 67%
    06:00 0°C° 0 mm 1 mps 748 mmHg 66%
    07:00 +2°C° 0 mm 1 mps 748 mmHg 59%
    08:00 +3°C° 0 mm 2 mps 748 mmHg 52%
    09:00 +5°C° 0 mm 2 mps 748 mmHg 46%
    10:00 +6°C° 0 mm 2 mps 747 mmHg 44%
    11:00 +7°C° 0 mm 3 mps 747 mmHg 41%
    12:00 +8°C° 0 mm 3 mps 746 mmHg 39%
    13:00 +8°C° 0 mm 3 mps 746 mmHg 40%
    14:00 +9°C° 0 mm 3 mps 745 mmHg 40%
    15:00 +10°C° 0 mm 3 mps 745 mmHg 41%
    16:00 +9°C° 0 mm 3 mps 744 mmHg 45%
    17:00 +9°C° 0 mm 3 mps 744 mmHg 48%
    18:00 +8°C° 0 mm 3 mps 743 mmHg 52%
    19:00 +7°C° 0 mm 3 mps 743 mmHg 57%
    20:00 +5°C° 0 mm 3 mps 743 mmHg 62%
    21:00 +4°C° 0 mm 3 mps 743 mmHg 67%
    22:00 +4°C° 0.1 mm 3 mps 742 mmHg 68%
    23:00 +3°C° 0.1 mm 4 mps 742 mmHg 70%
    Show more